Skip Page Navigation
NASA JPL Caltech
NASA Logo - Jet Propulsion Laboratory + View the NASA Portal
+ Center for Near-Earth Object Studies
JPL Home Earth Solar System Stars & Galaxies Technology
JPL Solar System Dynamics
BODIES ORBITS EPHEMERIDES TOOLS PHYSICAL DATA DISCOVERY FAQ SITE MAP
IMPORTANT: The SSD Announcement email list is now available. Major changes are coming in the near future, including possible hostname and/or URL changes. To be notified of such changes, subscribe to this email list.

Please visit this page for more details.


JPL Small-Body Database Browser
Search: [ help ]  
193039 (2000 ES133)
Classification: Main-belt Asteroid          SPK-ID: 2193039
Ephemeris | Orbit Diagram | Orbital Elements | Mission Design | Physical Parameters | Discovery Circumstances | Close-Approach Data ]

[ show orbit diagram ]
Orbital Elements at Epoch 2458600.5 (2019-Apr-27.0) TDB
Reference: JPL 15 (heliocentric ecliptic J2000)
 Element Value Uncertainty (1-sigma)   Units 
e .05570081175233305 9.0473e-08  
a 3.058196597860064 3.5167e-08 au
q 2.887852564861035 2.7326e-07 au
i 11.02072001225536 8.884e-06 deg
node 56.9844194743987 4.5845e-05 deg
peri 171.7575382954169 8.7083e-05 deg
M 167.255915833407 7.5323e-05 deg
tp 2457692.939647677640
(2016-Oct-31.43964768)
0.00040788 TDB
period 1953.42404008882
5.35
3.3694e-05
9.225e-08
d
yr
n .184291783356793 3.1788e-09 deg/d
Q 3.228540630859092 3.7126e-08 au
  Orbit Determination Parameters
   # obs. used (total)      365  
   data-arc span      8597 days (23.54 yr)  
   first obs. used      1995-04-26  
   last obs. used      2018-11-08  
   planetary ephem.      DE431  
   SB-pert. ephem.      SB431-N16  
   condition code      0  
   norm. resid. RMS      .63176  
   source      ORB  
   producer      Otto Matic  
   solution date      2019-Jul-13 06:58:42  

Additional Information
 Earth MOID = 1.87757 au 
 Jupiter MOID = 1.76014 au 
 T_jup = 3.204 
[ show covariance matrix ]

Ephemeris | Orbit Diagram | Orbital Elements | Mission Design | Physical Parameters | Discovery Circumstances | Close-Approach Data ]

Physical Parameter Table
Parameter Symbol Value Units Sigma Reference Notes
absolute magnitude H 15.1   n/a MPO382194  

193039 (2000 ES133)          Discovered 2000-Mar-11 by LONEOS at Anderson Mesa
Reference: 20081113/Numbers.arcLast Updated: 2008-11-17

[ hide close-approach data ]
Close-Approach Data   ...sorted by Date/Time (TDB)
Date/Time (TDB) Time Uncertainty
(days_HH:MM)
Body Nominal Distance (au) Minimum Distance (au) Maximum Distance (au) V-relative (km/s) V-infinity (km/s) JD (TDB) Time Uncertainty (minutes) Semi-major axis (km) Semi-minor axis (km) range-LOV angle (deg) N-sigma BP Orbit Ref. Reference Modified
1918-May-05 09:32 00:05 Jupiter 1.94078761938487 1.94078504584116 1.94079019294944 3.78427287703739 3.66713191652776 2421718.897425337 5.04152469956972 353.287726349317 21.0523752853555 -69.5370052742642 2344918.69381375 T 15 CATAB v2.0e-lin.ifort 2019-Jul-13 06:58:45 2019-Jul-13 06:58
1927-Dec-16 01:04 00:05 Jupiter 1.86048685877874 1.86048519819254 1.86048851940704 3.29132581903777 3.14996620357488 2425230.544529527 4.81979366287861 552.650277096036 33.9837007555847 -81.7938510342079 1255033.51819202 T 15 CATAB v2.0e-lin.ifort 2019-Jul-13 06:58:45 2019-Jul-13 06:58
1976-Oct-02 08:37 00:02 Jupiter 1.78184219549596 1.78184122519424 1.78184316580173 3.68559971531184 3.55428171589573 2443053.859301753 1.98297831290858 193.481178011825 23.7767104075111 -79.1797812229365 1496472.48774395 T 15 CATAB v2.0e-lin.ifort 2019-Jul-13 06:58:45 2019-Jul-13 06:58
2035-Feb-28 03:55 00:01 Jupiter 1.79810639401562 1.79810531017394 1.79810747786446 3.48672556752412 3.34889951081706 2464386.663343096 1.14578701554406 307.767961005578 31.5368308914397 -82.9663066207919 1287080.06399676 T 15 CATAB v2.0e-lin.ifort 2019-Jul-13 06:58:45 2019-Jul-13 06:58
2083-Dec-07 14:39 00:04 Jupiter 1.83383285709251 1.83383168768018 1.83383402651411 3.7000409701402 3.57302817174772 2482201.110526464 3.66157736345237 245.43683697744 20.1911033026683 -77.5787464590022 1806448.63569469 T 15 CATAB v2.0e-lin.ifort 2019-Jul-13 06:58:45 2019-Jul-13 06:58
2093-Jul-12 13:23 00:04 Jupiter 1.96351813401201 1.96351606133187 1.96352020670844 3.35807781575947 3.22706159723725 2485706.057738249 4.39281663076273 348.334452592387 40.8506318950515 -75.3801560141072 1402099.4382976 T 15 CATAB v2.0e-lin.ifort 2019-Jul-13 06:58:45 2019-Jul-13 06:58
2142-May-09 05:20 00:07 Jupiter 1.76429348573946 1.76429236326107 1.76429460822417 3.62026536587874 3.48513099919529 2503537.722560552 6.71156751091542 258.727262652439 33.3847011081674 -80.5344482060062 1406072.71129843 T 15 CATAB v2.0e-lin.ifort 2019-Jul-13 06:58:45 2019-Jul-13 06:58
2191-Feb-16 00:33 00:09 Jupiter 1.91481856896806 1.91481461228915 1.91482252571326 3.63272115791742 3.5088403179926 2521352.522711382 9.41056946584345 609.863590769852 20.0032541253303 -70.9341403186605 2134604.75003396 T 15 CATAB v2.0e-lin.ifort 2019-Jul-13 06:58:45 2019-Jul-13 06:58
2200-Oct-01 15:23 00:10 Jupiter 1.87367602757778 1.87367207770775 1.87367997767297 3.46359755535388 3.33052231932506 2524867.140746516 10.1999708501844 1092.83884753963 35.6247132725734 -79.6148488263131 1314803.40875635 T 15 CATAB v2.0e-lin.ifort 2019-Jul-13 06:58:45 2019-Jul-13 06:58

Alternate Designations
 2000 ES133 = 1995 HV3 
Ephemeris | Orbit Diagram | Orbital Elements | Mission Design | Physical Parameters | Discovery Circumstances | Close-Approach Data ]
ABOUT SSD CREDITS/AWARDS PRIVACY/COPYRIGHT GLOSSARY LINKS
FirstGov
(server date/time)  
NASA Home Page
Site Manager:   Ryan S. Park
Webmaster  Alan B. Chamberlin